FW5354 Weather Reports


Display with metric or nautical units.
time (UTC)temp
F
wind
direction
speed
MPH
gust
MPH
rain 1hr
in
rain 24hr
in
rain mn
in
humidity
%
barometer
mb
20210621190608 93 145 2.0 9.0 0.00 0.04 0.04 63 1007.5
20210621190134 93 109 3.0 9.0 0.00 0.04 0.04 62 1007.5
20210621185555 93 174 1.0 8.0 0.00 0.04 0.04 67 1007.6
20210621185105 93 7 1.0 8.0 0.00 0.04 0.04 67 1007.6
20210621184647 93 155 2.0 8.0 0.00 0.04 0.04 65 1007.6
20210621184052 92 196 2.0 5.0 0.00 0.04 0.04 70 1007.6
20210621183604 92 197 2.0 6.0 0.00 0.04 0.04 67 1007.8
20210621183130 91 187 3.0 9.0 0.00 0.04 0.04 69 1007.8
20210621182605 91 150 2.0 9.0 0.00 0.04 0.04 69 1007.9
20210621182047 91 186 2.0 7.0 0.00 0.04 0.04 69 1008.0
20210621181056 89 198 3.0 9.0 0.00 0.04 0.04 73 1008.1
20210621180547 89 180 5.0 9.0 0.00 0.04 0.04 71 1008.1
20210621180153 89 207 4.0 12.0 0.00 0.04 0.04 70 1008.2
20210621175558 90 201 4.0 12.0 0.00 0.04 0.04 68 1008.2
20210621175129 90 184 4.0 11.0 0.00 0.04 0.04 67 1008.1
20210621174626 91 70 3.0 11.0 0.00 0.04 0.04 68 1008.1
20210621174051 90 136 2.0 12.0 0.00 0.04 0.04 69 1008.1
20210621173545 90 158 2.0 12.0 0.00 0.04 0.04 70 1008.2
20210621173151 90 156 4.0 8.0 0.00 0.04 0.04 69 1008.3
20210621172551 90 145 4.0 9.0 0.00 0.04 0.04 71 1008.3
20210621172048 89 162 1.0 9.0 0.00 0.04 0.04 73 1008.4
20210621171042 88 175 2.0 8.0 0.00 0.04 0.04 74 1008.5
20210621170548 87 150 3.0 8.0 0.00 0.04 0.04 74 1008.6
20210621170051 87 203 4.0 8.0 0.00 0.04 0.04 74 1008.6
20210621165550 87 187 4.0 9.0 0.00 0.04 0.04 74 1008.7
20210621165055 87 311 2.0 10.0 0.00 0.04 0.04 74 1008.7
20210621164643 87 82 4.0 10.0 0.00 0.04 0.04 74 1008.8
20210621164046 87 155 4.0 9.0 0.00 0.04 0.04 74 1008.8
20210621163549 87 165 3.0 10.0 0.00 0.04 0.04 74 1008.8
20210621163116 87 117 4.0 10.0 0.00 0.04 0.04 74 1008.9
20210621162540 87 29 3.0 9.0 0.00 0.04 0.04 75 1008.8
20210621162044 87 70 2.0 9.0 0.00 0.04 0.04 76 1008.8
20210621161044 87 186 1.0 7.0 0.00 0.04 0.04 77 1008.9
20210621160544 87 164 2.0 9.0 0.04 0.04 0.04 77 1008.9
20210621160102 86 162 1.0 9.0 0.04 0.04 0.04 78 1008.9
20210621155544 86 42 3.0 10.0 0.04 0.04 0.04 79 1009.0
20210621155055 85 160 3.0 10.0 0.04 0.04 0.04 80 1009.1
20210621154642 85 153 1.0 7.0 0.04 0.04 0.04 82 1009.1
20210621154045 84 150 2.0 10.0 0.04 0.04 0.04 82 1009.1
20210621153537 84 165 2.0 10.0 0.04 0.04 0.04 82 1009.2
20210621153052 84 148 2.0 7.0 0.04 0.04 0.04 84 1009.3
20210621152537 84 177 2.0 6.0 0.04 0.04 0.04 85 1009.3
20210621152041 83 188 1.0 8.0 0.04 0.04 0.04 87 1009.2
20210621151042 84 173 1.0 10.0 0.04 0.04 0.04 84 1009.2
20210621150606 85 143 5.0 10.0 0.03 0.03 0.03 79 1009.2
20210621150125 87 81 5.0 10.0 0.00 0.00 0.00 76 1009.2
20210621145539 87 156 2.0 9.0 0.00 0.00 0.00 76 1009.1
20210621145035 87 191 3.0 9.0 0.00 0.00 0.00 75 1009.1
20210621144713 87 146 2.0 9.0 0.00 0.00 0.00 76 1009.1
20210621144035 87 136 3.0 7.0 0.00 0.00 0.00 76 1009.0
20210621143533 87 124 3.0 9.0 0.00 0.00 0.00 76 1008.9
20210621143039 87 84 2.0 9.0 0.00 0.00 0.00 77 1008.8
20210621142547 86 188 3.0 8.0 0.00 0.00 0.00 78 1008.9
20210621142101 86 169 3.0 7.0 0.00 0.00 0.00 78 1008.9
20210621141037 86 188 2.0 7.0 0.00 0.00 0.00 79 1009.0
20210621140536 86 196 2.0 7.0 0.00 0.00 0.00 79 1008.9
20210621140044 85 165 2.0 9.0 0.00 0.00 0.00 81 1008.9
20210621135525 85 204 2.0 8.0 0.00 0.00 0.00 81 1009.0
20210621135023 84 129 1.0 10.0 0.00 0.00 0.00 82 1009.0
20210621134542 84 326 2.0 10.0 0.00 0.00 0.00 82 1009.0
20210621134041 84 180 0.0 7.0 0.00 0.00 0.00 82 1009.1
20210621133522 84 92 2.0 7.0 0.00 0.00 0.00 83 1009.0
20210621133038 84 144 1.0 6.0 0.00 0.00 0.00 83 1009.0
20210621132520 84 205 2.0 6.0 0.00 0.00 0.00 83 1008.9
20210621132019 83 143 1.0 6.0 0.00 0.00 0.00 84 1008.9
20210621131021 83 172 1.0 4.0 0.00 0.00 0.00 85 1008.8
20210621130516 83 69 1.0 4.0 0.00 0.00 0.00 85 1008.7
20210621130058 83 174 2.0 6.0 0.00 0.00 0.00 85 1008.6
20210621125521 83 181 2.0 6.0 0.00 0.00 0.00 85 1008.5
20210621125013 82 190 1.0 5.0 0.00 0.00 0.00 85 1008.4
20210621124524 82 78 2.0 5.0 0.00 0.00 0.00 86 1008.3
20210621124015 82 77 1.0 5.0 0.00 0.00 0.00 86 1008.3
20210621123513 82 251 1.0 6.0 0.00 0.00 0.00 87 1008.2
20210621123008 82 105 1.0 6.0 0.00 0.00 0.00 87 1008.2
20210621122507 81 73 0.0 4.0 0.00 0.00 0.00 87 1008.1
20210621122023 81 153 0.0 5.0 0.00 0.00 0.00 88 1007.9
20210621121044 81 225 0.0 4.0 0.00 0.00 0.00 88 1007.9
20210621120536 81 113 0.0 6.0 0.00 0.00 0.00 88 1007.9
20210621120036 81 184 0.0 6.0 0.00 0.00 0.00 89 1007.9
20210621115526 81 90 1.0 4.0 0.00 0.00 0.00 89 1007.9
20210621115013 81 192 0.0 5.0 0.00 0.00 0.00 89 1007.9
20210621114515 81 288 0.0 2.0 0.00 0.00 0.00 89 1008.0
20210621114012 81 179 0.0 2.0 0.00 0.00 0.00 89 1008.0
20210621113512 81 195 0.0 3.0 0.00 0.00 0.00 89 1008.1
20210621113014 80 296 0.0 2.0 0.00 0.00 0.00 89 1008.0
20210621112516 80 184 0.0 2.0 0.00 0.00 0.00 89 1007.9
20210621112011 80 158 0.0 1.0 0.00 0.00 0.00 89 1007.9
20210621111009 80 158 0.0 1.0 0.00 0.00 0.00 89 1007.7
20210621110507 80 179 0.0 1.0 0.00 0.00 0.00 89 1007.7
20210621110004 80 186 0.0 1.0 0.00 0.00 0.00 89 1007.6
20210621105509 80 187 0.0 2.0 0.00 0.00 0.00 89 1007.6
20210621105007 80 187 0.0 2.0 0.00 0.00 0.00 89 1007.5
20210621104503 80 162 0.0 2.0 0.00 0.00 0.00 89 1007.5
20210621104002 80 153 0.0 2.0 0.00 0.00 0.00 88 1007.5
20210621103502 80 182 0.0 0.0 0.00 0.00 0.00 88 1007.5
20210621103004 80 181 0.0 1.0 0.00 0.00 0.00 89 1007.4
20210621102510 80 146 0.0 1.0 0.00 0.00 0.00 87 1007.5
20210621102003 80 151 0.0 2.0 0.00 0.00 0.00 87 1007.3
20210621101003 80 105 0.0 2.0 0.00 0.00 0.00 87 1007.2
20210621100505 80 60 0.0 2.0 0.00 0.00 0.00 87 1007.3
20210621100003 80 188 0.0 2.0 0.00 0.00 0.00 87 1007.2
20210621095503 80 196 0.0 3.0 0.00 0.00 0.00 86 1007.2
20210621095002 81 198 0.0 3.0 0.00 0.00 0.00 86 1007.1
20210621094504 81 198 0.0 3.0 0.00 0.00 0.00 86 1007.1
20210621094009 81 75 0.0 3.0 0.00 0.00 0.00 86 1007.0
20210621093502 80 179 0.0 3.0 0.00 0.00 0.00 85 1007.0
20210621093003 80 164 0.0 4.0 0.00 0.00 0.00 85 1006.9
20210621092502 80 150 0.0 3.0 0.00 0.00 0.00 85 1006.9
20210621092002 80 124 1.0 3.0 0.00 0.00 0.00 85 1007.0
20210621091002 80 138 0.0 3.0 0.00 0.00 0.00 85 1007.0
20210621090001 80 133 0.0 3.0 0.00 0.00 0.00 84 1007.0
20210621085503 80 90 0.0 3.0 0.00 0.00 0.00 84 1007.0
20210621085001 80 155 0.0 2.0 0.00 0.00 0.00 84 1006.9
20210621083608 81 162 0.0 3.0 0.00 0.00 0.00 83 1006.9
20210621083159 81 153 0.0 3.0 0.00 0.00 0.00 83 1007.0
20210621082559 81 171 0.0 4.0 0.00 0.00 0.00 83 1006.9
20210621082100 80 178 0.0 6.0 0.00 0.00 0.00 83 1007.0
20210621081614 80 160 0.0 5.0 0.00 0.00 0.00 83 1006.9
20210621081058 80 161 0.0 5.0 0.00 0.00 0.00 83 1006.9
20210621080558 80 111 2.0 5.0 0.00 0.00 0.00 83 1006.9
20210621080212 80 152 1.0 4.0 0.00 0.00 0.00 83 1006.9
20210621075103 80 188 1.0 4.0 0.00 0.00 0.00 84 1007.1
20210621074646 80 180 0.0 3.0 0.00 0.00 0.00 84 1007.1
20210621074057 80 148 1.0 4.0 0.00 0.00 0.00 84 1007.1
20210621073601 80 179 1.0 4.0 0.00 0.00 0.00 84 1007.2
20210621073207 80 122 1.0 5.0 0.00 0.00 0.00 85 1007.2
20210621072559 80 157 1.0 5.0 0.00 0.00 0.00 85 1007.2
20210621072502 80 195 1.0 5.0 0.00 0.00 0.00 85 1007.2
20210621072057 80 174 1.0 5.0 0.00 0.00 0.00 85 1007.3
20210621071608 80 169 0.0 4.0 0.00 0.00 0.00 86 1007.1
20210621071100 80 169 0.0 6.0 0.00 0.00 0.00 86 1007.1
20210621070603 80 152 1.0 6.0 0.00 0.00 0.00 86 1007.2
20210621070148 80 138 1.0 4.0 0.00 0.00 0.00 86 1007.2
20210621065600 80 175 1.0 4.0 0.00 0.00 0.00 86 1007.3
20210621065100 80 163 0.0 4.0 0.00 0.00 0.00 86 1007.5
20210621064720 80 200 0.0 6.0 0.00 0.00 0.00 86 1007.5
20210621064101 80 173 2.0 6.0 0.00 0.00 0.00 86 1007.5
20210621063559 80 71 0.0 4.0 0.00 0.00 0.00 86 1007.5
20210621063339 80 179 1.0 3.0 0.00 0.00 0.00 86 1007.5
20210621062558 80 184 0.0 4.0 0.00 0.00 0.00 85 1007.6
20210621062058 80 83 1.0 5.0 0.00 0.00 0.00 85 1007.7
20210621061618 80 167 1.0 6.0 0.00 0.00 0.00 85 1007.8
20210621061055 80 97 1.0 6.0 0.00 0.00 0.00 85 1007.8
20210621061002 80 141 1.0 6.0 0.00 0.00 0.00 85 1007.7
20210621060555 80 150 0.0 4.0 0.00 0.00 0.00 85 1007.8
20210621060205 80 134 1.0 4.0 0.00 0.00 0.00 84 1007.9
20210621055636 80 180 0.0 3.0 0.00 0.00 0.00 84 1007.9
20210621055057 80 191 1.0 4.0 0.00 0.00 0.00 84 1008.0
20210621054702 80 153 0.0 4.0 0.00 0.00 0.00 84 1008.0
20210621054055 80 145 0.0 3.0 0.00 0.00 0.00 84 1008.0
20210621053554 80 172 0.0 5.0 0.00 0.00 0.00 83 1008.2
20210621053141 80 163 1.0 5.0 0.00 0.00 0.00 84 1008.1
20210621052555 80 166 0.0 4.0 0.00 0.00 0.00 84 1008.2
20210621052057 80 177 1.0 4.0 0.00 0.00 0.00 84 1008.2
20210621051631 81 106 0.0 5.0 0.00 0.00 0.00 84 1008.3
20210621051130 81 106 0.0 5.0 0.00 0.00 0.00 83 1008.3
20210621050555 81 160 0.0 6.0 0.00 0.00 0.00 83 1008.3
20210621050144 81 165 1.0 8.0 0.00 0.00 0.00 83 1008.3
20210621045605 81 93 1.0 6.0 0.00 0.00 0.00 84 1008.4
20210621045103 81 135 2.0 6.0 0.00 0.00 0.00 84 1008.4
20210621044720 81 150 2.0 7.0 0.00 0.00 0.00 84 1008.4
20210621044508 81 181 2.0 7.0 0.00 0.00 0.00 84 1008.4
20210621044100 81 163 2.0 4.0 0.00 0.00 0.00 84 1008.4
20210621043559 81 113 1.0 6.0 0.00 0.00 0.00 84 1008.5
20210621043122 81 138 1.0 6.0 0.00 0.00 0.00 84 1008.5
20210621042555 81 145 2.0 4.0 0.00 0.00 0.00 84 1008.6
20210621042056 81 163 1.0 5.0 0.00 0.00 0.00 84 1008.5
20210621041816 82 140 2.0 9.0 0.00 0.00 0.00 83 1008.5
20210621041057 82 184 1.0 9.0 0.00 0.00 0.00 83 1008.5
20210621040555 82 198 2.0 14.0 0.00 0.00 0.00 83 1008.5
20210621040239 82 169 3.0 14.0 0.00 0.00 0.00 83 1008.5
20210621035555 82 165 1.0 9.0 0.00 0.00 0.00 83 1008.4
20210621035113 82 113 2.0 7.0 0.00 0.00 0.00 83 1008.3
20210621034659 83 160 2.0 7.0 0.00 0.00 0.00 83 1008.2
20210621034056 83 94 2.0 8.0 0.00 0.00 0.00 84 1008.2
20210621033554 83 102 2.0 9.0 0.00 0.00 0.00 84 1008.1
20210621033112 83 203 0.0 4.0 0.00 0.00 0.00 84 1008.2
20210621032554 83 170 0.0 4.0 0.00 0.00 0.00 85 1008.1
20210621032053 82 99 1.0 9.0 0.00 0.00 0.00 84 1008.0
20210621031737 82 110 0.0 4.0 0.00 0.00 0.00 84 1007.9
20210621031058 82 155 0.0 4.0 0.00 0.00 0.00 84 1007.9
20210621030553 82 186 1.0 6.0 0.00 0.00 0.00 84 1007.8
20210621030140 83 174 1.0 6.0 0.00 0.00 0.00 84 1007.6
20210621025558 83 165 0.0 6.0 0.00 0.00 0.00 84 1007.5
20210621025052 83 193 2.0 7.0 0.00 0.00 0.00 84 1007.4
20210621024624 83 142 2.0 7.0 0.00 0.00 0.00 83 1007.3
20210621024106 83 226 0.0 7.0 0.00 0.00 0.00 83 1007.3
20210621023552 83 181 2.0 7.0 0.00 0.00 0.00 83 1007.4
20210621023139 83 117 1.0 5.0 0.00 0.00 0.00 82 1007.3
20210621022555 83 195 2.0 7.0 0.00 0.00 0.00 82 1007.3
20210621022051 83 148 2.0 7.0 0.00 0.00 0.00 82 1007.4
20210621021804 84 142 1.0 5.0 0.00 0.00 0.00 81 1007.5
20210621021052 84 305 1.0 4.0 0.00 0.00 0.00 81 1007.5
20210621020554 84 122 0.0 5.0 0.00 0.00 0.00 81 1007.5
20210621020143 84 171 2.0 8.0 0.00 0.00 0.00 81 1007.4
20210621015552 84 139 3.0 8.0 0.00 0.00 0.00 80 1007.3
20210621015051 84 107 1.0 6.0 0.00 0.00 0.00 80 1007.3
20210621014643 84 149 1.0 6.0 0.00 0.00 0.00 80 1007.2
20210621014051 84 140 2.0 8.0 0.00 0.00 0.00 79 1007.2
20210621013551 84 159 3.0 8.0 0.00 0.00 0.00 79 1007.1
20210621013110 85 144 3.0 8.0 0.00 0.00 0.00 78 1007.1
20210621012551 85 207 2.0 8.0 0.00 0.00 0.00 78 1007.0
20210621012112 85 182 3.0 8.0 0.00 0.00 0.00 78 1006.9
20210621011852 85 171 2.0 8.0 0.00 0.00 0.00 77 1006.9
20210621011053 85 183 2.0 8.0 0.00 0.00 0.00 77 1006.9
20210621010606 85 60 2.0 8.0 0.00 0.00 0.00 77 1006.8
20210621010107 85 166 2.0 5.0 0.00 0.00 0.00 77 1006.7
20210621005610 85 188 2.0 8.0 0.00 0.00 0.00 77 1006.7
20210621005101 86 97 2.0 8.0 0.00 0.00 0.00 76 1006.7
20210621004707 86 148 3.0 8.0 0.00 0.00 0.00 76 1006.7
20210621004115 86 179 3.0 8.0 0.00 0.00 0.00 75 1006.7
20210621003555 86 160 3.0 8.0 0.00 0.00 0.00 75 1006.7
20210621003255 86 147 2.0 9.0 0.00 0.00 0.00 75 1006.7
20210621002550 86 137 3.0 9.0 0.00 0.00 0.00 74 1006.9
20210621002116 86 130 1.0 8.0 0.00 0.00 0.00 74 1006.9
20210621001615 87 200 3.0 6.0 0.00 0.00 0.00 72 1006.9
20210621001052 87 181 3.0 6.0 0.00 0.00 0.00 71 1006.9
20210621000551 87 191 3.0 9.0 0.00 0.00 0.00 71 1006.8
20210621000220 87 133 3.0 11.0 0.00 0.00 0.00 73 1006.8
20210620235551 87 134 4.0 11.0 0.00 0.00 0.00 73 1006.8
20210620235110 87 167 3.0 9.0 0.00 0.00 0.00 73 1006.7
20210620234648 87 166 3.0 7.0 0.00 0.00 0.00 73 1006.9
20210620234055 88 165 3.0 7.0 0.00 0.00 0.00 72 1006.7
20210620233558 88 95 2.0 6.0 0.00 0.00 0.00 73 1006.7
20210620233121 88 163 2.0 10.0 0.00 0.00 0.00 72 1006.7
20210620232550 88 144 3.0 11.0 0.00 0.00 0.00 72 1006.7
20210620232114 88 164 2.0 6.0 0.00 0.00 0.00 72 1006.7
20210620231613 89 162 3.0 6.0 0.00 0.00 0.00 69 1006.6
20210620231049 89 178 2.0 6.0 0.00 0.00 0.00 69 1006.6
20210620230600 89 41 2.0 8.0 0.00 0.00 0.00 69 1006.5
20210620230215 89 118 3.0 8.0 0.00 0.00 0.00 69 1006.5
20210620225548 89 148 2.0 5.0 0.00 0.00 0.00 69 1006.5
20210620225048 89 139 2.0 5.0 0.00 0.00 0.00 68 1006.5
20210620224614 90 172 1.0 7.0 0.00 0.00 0.00 67 1006.5
20210620224052 90 155 2.0 7.0 0.00 0.00 0.00 67 1006.6
20210620223601 90 147 2.0 7.0 0.00 0.00 0.00 67 1006.6
20210620223058 90 155 2.0 8.0 0.00 0.00 0.00 66 1006.6
20210620222621 90 165 2.0 9.0 0.00 0.00 0.00 67 1006.7
20210620222054 90 209 4.0 9.0 0.00 0.00 0.00 66 1006.7
20210620221716 90 162 3.0 7.0 0.00 0.00 0.00 67 1006.8
20210620221048 90 124 3.0 7.0 0.00 0.00 0.00 68 1006.8
20210620220542 90 148 3.0 6.0 0.00 0.00 0.00 70 1006.8
20210620220045 90 179 1.0 4.0 0.00 0.00 0.00 72 1006.9
20210620215556 91 182 0.0 2.0 0.00 0.00 0.00 73 1006.8
20210620215041 90 181 0.0 3.0 0.00 0.00 0.00 74 1006.8
20210620214639 90 186 1.0 3.0 0.00 0.00 0.00 74 1006.8
20210620214058 90 148 1.0 3.0 0.00 0.00 0.00 73 1006.9
20210620213545 90 41 0.0 4.0 0.00 0.00 0.00 73 1007.0
20210620213141 89 205 1.0 5.0 0.00 0.00 0.00 74 1007.0
20210620212543 89 197 1.0 5.0 0.00 0.00 0.00 74 1007.0
20210620212044 90 173 1.0 4.0 0.00 0.00 0.00 73 1007.0
20210620211556 90 159 1.0 4.0 0.00 0.00 0.00 72 1007.1
20210620211038 90 151 0.0 3.0 0.00 0.00 0.00 72 1007.1
20210620210537 90 133 0.0 5.0 0.00 0.00 0.00 70 1007.3
20210620210102 90 348 0.0 6.0 0.00 0.00 0.00 68 1007.2
20210620205600 90 338 0.0 6.0 0.00 0.00 0.00 70 1007.2
20210620205037 89 120 0.0 5.0 0.00 0.00 0.00 70 1007.3
20210620204624 89 161 0.0 5.0 0.00 0.00 0.00 71 1007.4
20210620204037 89 164 1.0 8.0 0.00 0.00 0.00 69 1007.4
20210620203538 89 82 1.0 8.0 0.00 0.00 0.00 69 1007.4
20210620203119 89 216 1.0 5.0 0.00 0.00 0.00 68 1007.5
20210620202536 89 178 1.0 5.0 0.00 0.00 0.00 69 1007.6
20210620202047 88 165 1.0 5.0 0.00 0.00 0.00 70 1007.5
20210620201556 87 162 2.0 11.0 0.00 0.00 0.00 68 1007.7
20210620201042 87 162 3.0 11.0 0.00 0.00 0.00 68 1007.7
20210620200539 88 189 5.0 14.0 0.00 0.00 0.00 66 1007.6
20210620200145 90 149 7.0 14.0 0.00 0.00 0.00 63 1007.5
20210620195543 91 163 5.0 13.0 0.00 0.00 0.00 67 1007.4
20210620195038 91 191 5.0 12.0 0.00 0.00 0.00 67 1007.2
20210620194605 92 143 2.0 7.0 0.00 0.00 0.00 62 1007.2
20210620194038 93 123 0.0 4.0 0.00 0.00 0.00 61 1007.2
20210620193552 93 72 1.0 7.0 0.00 0.00 0.00 61 1007.1
20210620193159 94 182 1.0 7.0 0.00 0.00 0.00 61 1007.1
20210620192541 94 186 0.0 6.0 0.00 0.00 0.00 59 1007.2
20210620192053 95 173 1.0 6.0 0.00 0.00 0.00 59 1007.4
20210620191600 93 94 2.0 7.0 0.00 0.00 0.00 63 1007.6
20210620191037 93 153 1.0 7.0 0.00 0.00 0.00 65 1007.5